• In Deutschland
  • Länderverzeichnis
  • Für 7 Tage
  • Wassertemperatur
  • Satellitenkarten
  • Wetterkarte
  • Widgets
  • user-avatar
    Anmelden

    Stündliche Wetter Naftalan

    Heute, 16 August, Mittwoch

    Zeit Temperatur Niederschläge Wind Luftdruck Luftfeuchtigkeit
    00:00 +27°C° 0 mm 6 m/S 760 mmHg 54%
    01:00 +27°C° 0 mm 6 m/S 760 mmHg 56%
    02:00 +27°C° 0 mm 6 m/S 760 mmHg 58%
    03:00 +26°C° 0 mm 5 m/S 761 mmHg 61%
    04:00 +26°C° 0 mm 5 m/S 761 mmHg 60%
    05:00 +27°C° 0 mm 5 m/S 761 mmHg 60%
    06:00 +27°C° 0 mm 5 m/S 761 mmHg 60%
    07:00 +29°C° 0 mm 5 m/S 761 mmHg 51%
    08:00 +32°C° 0 mm 5 m/S 761 mmHg 43%
    09:00 +34°C° 0 mm 5 m/S 761 mmHg 34%
    10:00 +35°C° 0 mm 5 m/S 761 mmHg 32%
    11:00 +36°C° 0 mm 5 m/S 761 mmHg 29%
    12:00 +37°C° 0 mm 5 m/S 761 mmHg 27%
    13:00 +37°C° 0 mm 5 m/S 760 mmHg 27%
    14:00 +37°C° 0 mm 5 m/S 760 mmHg 28%
    15:00 +36°C° 0 mm 5 m/S 760 mmHg 30%
    16:00 +35°C° 0 mm 4 m/S 760 mmHg 33%
    17:00 +34°C° 0 mm 4 m/S 760 mmHg 37%
    18:00 +33°C° 0 mm 3 m/S 760 mmHg 40%
    19:00 +31°C° 0 mm 3 m/S 760 mmHg 45%
    20:00 +30°C° 0 mm 3 m/S 761 mmHg 49%
    21:00 +29°C° 0 mm 2 m/S 761 mmHg 54%
    22:00 +29°C° 0 mm 2 m/S 761 mmHg 54%
    23:00 +29°C° 0 mm 3 m/S 761 mmHg 54%

    Morgen, 17 August, Donnerstag

    Zeit Temperatur Niederschläge Wind Luftdruck Luftfeuchtigkeit
    00:00 +28°C° 0 mm 3 m/S 761 mmHg 54%
    01:00 +28°C° 0 mm 2 m/S 761 mmHg 54%
    02:00 +27°C° 0 mm 2 m/S 760 mmHg 55%
    03:00 +26°C° 0 mm 2 m/S 760 mmHg 56%
    04:00 +27°C° 0 mm 2 m/S 760 mmHg 54%
    05:00 +27°C° 0 mm 2 m/S 760 mmHg 52%
    06:00 +28°C° 0 mm 3 m/S 760 mmHg 50%
    07:00 +30°C° 0 mm 2 m/S 760 mmHg 44%
    08:00 +32°C° 0 mm 2 m/S 760 mmHg 39%
    09:00 +35°C° 0 mm 2 m/S 760 mmHg 33%
    10:00 +36°C° 0 mm 3 m/S 760 mmHg 29%
    11:00 +37°C° 0 mm 3 m/S 760 mmHg 26%
    12:00 +38°C° 0 mm 4 m/S 760 mmHg 23%
    13:00 +39°C° 0 mm 5 m/S 760 mmHg 24%
    14:00 +39°C° 0 mm 6 m/S 759 mmHg 24%
    15:00 +39°C° 0 mm 7 m/S 759 mmHg 25%
    16:00 +38°C° 0 mm 6 m/S 759 mmHg 28%
    17:00 +35°C° 0 mm 6 m/S 759 mmHg 31%
    18:00 +34°C° 0 mm 5 m/S 759 mmHg 34%
    19:00 +33°C° 0 mm 5 m/S 759 mmHg 40%
    20:00 +30°C° 0 mm 4 m/S 760 mmHg 46%
    21:00 +29°C° 0 mm 4 m/S 760 mmHg 52%
    22:00 +29°C° 0 mm 4 m/S 760 mmHg 52%
    23:00 +29°C° 0 mm 3 m/S 760 mmHg 53%

    übermorgen, 18 August, Freitag

    Zeit Temperatur Niederschläge Wind Luftdruck Luftfeuchtigkeit
    00:00 +29°C° 0 mm 3 m/S 759 mmHg 54%
    01:00 +28°C° 0 mm 3 m/S 759 mmHg 54%
    02:00 +28°C° 0 mm 3 m/S 759 mmHg 54%
    03:00 +28°C° 0 mm 3 m/S 759 mmHg 55%
    04:00 +28°C° 0 mm 4 m/S 759 mmHg 52%
    05:00 +28°C° 0 mm 4 m/S 759 mmHg 49%
    06:00 +28°C° 0 mm 5 m/S 760 mmHg 46%
    07:00 +30°C° 0 mm 5 m/S 760 mmHg 39%
    08:00 +33°C° 0 mm 5 m/S 760 mmHg 32%
    09:00 +35°C° 0 mm 5 m/S 760 mmHg 25%
    10:00 +36°C° 0 mm 5 m/S 760 mmHg 23%
    11:00 +39°C° 0 mm 5 m/S 760 mmHg 21%
    12:00 +40°C° 0 mm 4 m/S 760 mmHg 19%
    13:00 +40°C° 0 mm 5 m/S 759 mmHg 19%
    14:00 +41°C° 0 mm 6 m/S 759 mmHg 19%
    15:00 +41°C° 0 mm 7 m/S 759 mmHg 18%
    16:00 +39°C° 0 mm 6 m/S 759 mmHg 21%
    17:00 +38°C° 0 mm 6 m/S 760 mmHg 24%
    18:00 +35°C° 0 mm 5 m/S 760 mmHg 28%
    19:00 +33°C° 0 mm 4 m/S 760 mmHg 35%
    20:00 +32°C° 0 mm 4 m/S 761 mmHg 43%
    21:00 +29°C° 0 mm 3 m/S 761 mmHg 50%
    22:00 +29°C° 0 mm 3 m/S 761 mmHg 52%
    23:00 +28°C° 0 mm 3 m/S 761 mmHg 53%

    19 August, Samstag

    Zeit Temperatur Niederschläge Wind Luftdruck Luftfeuchtigkeit
    00:00 +28°C° 0 mm 3 m/S 761 mmHg 54%
    01:00 +27°C° 0 mm 3 m/S 761 mmHg 52%
    02:00 +27°C° 0 mm 4 m/S 761 mmHg 49%
    03:00 +27°C° 0 mm 4 m/S 761 mmHg 46%
    04:00 +28°C° 0 mm 4 m/S 762 mmHg 45%
    05:00 +28°C° 0 mm 4 m/S 762 mmHg 44%
    06:00 +28°C° 0 mm 4 m/S 762 mmHg 43%
    07:00 +30°C° 0 mm 4 m/S 762 mmHg 39%
    08:00 +33°C° 0 mm 4 m/S 762 mmHg 35%
    09:00 +36°C° 0 mm 4 m/S 763 mmHg 31%
    10:00 +37°C° 0 mm 4 m/S 763 mmHg 28%
    11:00 +38°C° 0 mm 4 m/S 762 mmHg 25%
    12:00 +41°C° 0 mm 4 m/S 762 mmHg 22%
    13:00 +41°C° 0 mm 5 m/S 762 mmHg 22%
    14:00 +40°C° 0 mm 6 m/S 762 mmHg 21%
    15:00 +40°C° 0 mm 7 m/S 762 mmHg 21%
    16:00 +39°C° 0 mm 6 m/S 762 mmHg 24%
    17:00 +36°C° 0 mm 6 m/S 762 mmHg 27%
    18:00 +35°C° 0 mm 5 m/S 762 mmHg 31%
    19:00 +33°C° 0 mm 4 m/S 763 mmHg 39%
    20:00 +30°C° 0 mm 4 m/S 763 mmHg 47%
    21:00 +29°C° 0 mm 3 m/S 764 mmHg 56%
    22:00 +28°C° 0 mm 3 m/S 764 mmHg 56%
    23:00 +28°C° 0 mm 2 m/S 763 mmHg 56%

    20 August, Sonntag

    Zeit Temperatur Niederschläge Wind Luftdruck Luftfeuchtigkeit
    00:00 +28°C° 0 mm 2 m/S 763 mmHg 56%
    01:00 +27°C° 0 mm 2 m/S 763 mmHg 56%
    02:00 +27°C° 0 mm 1 m/S 763 mmHg 56%
    03:00 +27°C° 0 mm 1 m/S 762 mmHg 56%
    04:00 +27°C° 0 mm 1 m/S 763 mmHg 53%
    05:00 +27°C° 0 mm 1 m/S 763 mmHg 51%
    06:00 +28°C° 0 mm 1 m/S 763 mmHg 49%
    07:00 +30°C° 0 mm 1 m/S 763 mmHg 42%
    08:00 +32°C° 0 mm 1 m/S 763 mmHg 35%
    09:00 +34°C° 0 mm 1 m/S 763 mmHg 28%
    10:00 +37°C° 0 mm 2 m/S 763 mmHg 24%
    11:00 +38°C° 0 mm 3 m/S 762 mmHg 20%
    12:00 +41°C° 0 mm 4 m/S 762 mmHg 16%
    13:00 +41°C° 0 mm 5 m/S 762 mmHg 17%
    14:00 +41°C° 0 mm 6 m/S 761 mmHg 18%
    15:00 +40°C° 0 mm 6 m/S 761 mmHg 19%
    16:00 +39°C° 0 mm 6 m/S 761 mmHg 25%
    17:00 +36°C° 0 mm 5 m/S 761 mmHg 30%
    18:00 +34°C° 0 mm 5 m/S 761 mmHg 36%
    19:00 +33°C° 0 mm 4 m/S 761 mmHg 44%
    20:00 +30°C° 0 mm 3 m/S 761 mmHg 52%
    21:00 +29°C° 0 mm 3 m/S 762 mmHg 60%
    22:00 +28°C° 0 mm 2 m/S 761 mmHg 60%
    23:00 +28°C° 0 mm 2 m/S 761 mmHg 61%

    21 August, Montag

    Zeit Temperatur Niederschläge Wind Luftdruck Luftfeuchtigkeit
    00:00 +28°C° 0 mm 2 m/S 761 mmHg 61%
    01:00 +28°C° 0 mm 2 m/S 761 mmHg 60%
    02:00 +27°C° 0 mm 2 m/S 761 mmHg 59%
    03:00 +27°C° 0 mm 1 m/S 761 mmHg 58%
    04:00 +27°C° 0 mm 2 m/S 761 mmHg 56%
    05:00 +28°C° 0 mm 2 m/S 761 mmHg 54%
    06:00 +28°C° 0 mm 2 m/S 761 mmHg 52%
    07:00 +30°C° 0 mm 2 m/S 761 mmHg 46%
    08:00 +32°C° 0 mm 2 m/S 761 mmHg 39%
    09:00 +35°C° 0 mm 2 m/S 761 mmHg 33%
    10:00 +37°C° 0 mm 3 m/S 761 mmHg 28%
    11:00 +38°C° 0 mm 3 m/S 761 mmHg 24%
    12:00 +40°C° 0 mm 3 m/S 760 mmHg 20%
    13:00 +41°C° 0 mm 4 m/S 760 mmHg 19%
    14:00 +41°C° 0 mm 4 m/S 760 mmHg 19%
    15:00 +42°C° 0 mm 5 m/S 759 mmHg 18%
    16:00 +40°C° 0 mm 5 m/S 759 mmHg 23%
    17:00 +37°C° 0 mm 5 m/S 759 mmHg 27%
    18:00 +35°C° 0 mm 4 m/S 760 mmHg 32%
    19:00 +34°C° 0 mm 4 m/S 760 mmHg 39%
    20:00 +31°C° 0 mm 3 m/S 760 mmHg 46%
    21:00 +29°C° 0 mm 2 m/S 760 mmHg 53%
    22:00 +29°C° 0 mm 2 m/S 760 mmHg 54%
    23:00 +29°C° 0 mm 2 m/S 760 mmHg 54%
    Mehr zeigen